Location: Newark
(35.9031°N, 139.7175°E)
Time: 12:16:43
(UTC+00:00)

Transit 2A - Pass Details

Date: 04 June 2020
Orbit: 592 x 967 km, 66.7° (Epoch: 06 July)

Event Time Altitude Azimuth Distance (km) Brightness Sun altitude
Rises 11:47:27 0° 335° (NNW) 3,585 10.9 -18.8°
Reaches altitude 10° 11:50:00 10° 339° (NNW) 2,669 9.9 -19.1°
Maximum altitude 11:56:16 66° 61° (ENE) 1,049 6.6 -20.0°
Enters shadow 11:58:56 36° 131° (SE) 1,482 6.9 -20.3°
